Weather History for KDVT - September, 2012

Change the Weather History Date:

Sunday, September 30, 2012

  Actual Average Record
Temperature  
Mean Temperature 86 °F -  
Max Temperature 99 °F 91 °F 102 °F (1997)
Min Temperature 72 °F 69 °F 61 °F (2014)
Cooling Degree Days 20    
Growing Degree Days 36 (Base 50)    
Moisture  
Dew Point 42 °F    
Average Humidity 23    
Maximum Humidity 40    
Minimum Humidity 11    
Precipitation  
Precipitation 0.00 in - - ()
Sea Level Pressure  
Sea Level Pressure 29.84 in    
Wind  
Wind Speed 4 mph (WNW)    
Max Wind Speed 12 mph    
Max Gust Speed -    
Visibility 10 miles    
Events      
Averages and records for this station are not official NWS values.
T = Trace of Precipitation, MM = Missing Value Source: NWS Daily Summary

Daily Weather History Graph

Daily Weather History Graph

Search for Another Location

Airport or City:

Trip Planner

Search our weather history database for the weather conditions in past years. The results will help you decide how hot, cold, wet, or windy it might be!

Date:

Astronomy

Sep. 30, 2012 Rise Set
Actual Time 6:22 AM MST 6:13 PM MST
Civil Twilight 5:57 AM MST 6:38 PM MST
Nautical Twilight 5:28 AM MST 7:06 PM MST
Astronomical Twilight 4:59 AM MST 7:35 PM MST
Moon 6:24 PM MST (9/30) 6:52 AM MST (9/30)
Length of Visible Light 12h 40m
Length of Day
11h 50m
Full, 100% of the Moon is Illuminated
Sep 30
Full
Oct 8
Last Quarter
Oct 15
New
Oct 21
First Quarter
Oct 29
Full

Hourly Weather History & Observations

Time (MST) Temp. Dew Point Humidity Pressure Visibility Wind Dir Wind Speed Gust Speed Precip Events Conditions
12:53 AM 78.1 °F 46.9 °F 33% 29.85 in 10.0 mi Calm Calm - N/A   Clear
1:53 AM 77.0 °F 46.0 °F 33% 29.85 in 10.0 mi NNE 5.8 mph - N/A   Clear
2:53 AM 75.0 °F 46.0 °F 36% 29.85 in 10.0 mi NNW 4.6 mph - N/A   Clear
3:53 AM 75.0 °F 46.0 °F 36% 29.85 in 10.0 mi Calm Calm - N/A   Clear
4:53 AM 73.0 °F 46.0 °F 38% 29.85 in 10.0 mi East 6.9 mph - N/A   Clear
5:53 AM 72.0 °F 46.0 °F 40% 29.87 in 10.0 mi Calm Calm - N/A   Clear
6:53 AM 73.0 °F 45.0 °F 37% 29.89 in 10.0 mi NNE 3.5 mph - N/A   Clear
7:53 AM 79.0 °F 46.0 °F 31% 29.90 in 10.0 mi Calm Calm - N/A   Clear
8:53 AM 82.0 °F 46.9 °F 29% 29.92 in 10.0 mi Calm Calm - N/A   Clear
9:53 AM 86.0 °F 46.9 °F 26% 29.91 in 10.0 mi Calm Calm - N/A   Clear
10:53 AM 89.1 °F 46.0 °F 22% 29.90 in 10.0 mi Variable 3.5 mph - N/A   Clear
11:53 AM 91.9 °F 44.1 °F 19% 29.88 in 10.0 mi Calm Calm - N/A   Clear
12:53 PM 95.0 °F 44.1 °F 17% 29.85 in 10.0 mi South 5.8 mph - N/A   Clear
1:53 PM 98.1 °F 42.1 °F 15% 29.81 in 10.0 mi SW 10.4 mph - N/A   Clear
2:53 PM 99.0 °F 39.9 °F 13% 29.79 in 10.0 mi WSW 11.5 mph - N/A   Clear
3:53 PM 99.0 °F 36.0 °F 11% 29.77 in 10.0 mi SW 10.4 mph - N/A   Clear
4:53 PM 99.0 °F 35.1 °F 11% 29.75 in 10.0 mi SW 8.1 mph - N/A   Clear
5:53 PM 96.1 °F 36.0 °F 12% 29.76 in 10.0 mi WSW 9.2 mph - N/A   Clear
6:53 PM 93.0 °F 36.0 °F 13% 29.78 in 10.0 mi SSW 4.6 mph - N/A   Clear
7:53 PM 89.1 °F 37.0 °F 16% 29.78 in 10.0 mi NNW 3.5 mph - N/A   Clear
9:53 PM 84.9 °F 37.0 °F 18% 29.81 in 10.0 mi NE 8.1 mph - N/A   Clear
10:53 PM 84.0 °F 35.1 °F 17% 29.81 in 10.0 mi NNE 10.4 mph - N/A   Clear
11:53 PM 82.0 °F 28.9 °F 14% 29.81 in 10.0 mi NNE 10.4 mph - N/A   Clear